Time,TemperatureF,DewpointF,PressureIn,WindDirection,WindDirectionDegrees,WindSpeedMPH,WindSpeedGustMPH,Humidity,HourlyPrecipIn,Conditions,Clouds,dailyrainin,SoftwareType,DateUTC
2013-04-02 00:00:00,51.3,45.4,29.82,West,270,0.0,0.4,80,0.00,,,0.00,WUHU216HW,2013-04-02 07:00:00,
2013-04-02 00:05:00,51.1,45.2,29.82,West,270,0.0,0.0,80,0.00,,,0.00,WUHU216HW,2013-04-02 07:05:00,
2013-04-02 00:10:00,50.9,45.0,29.81,West,270,0.0,0.0,80,0.00,,,0.00,WUHU216HW,2013-04-02 07:10:00,
2013-04-02 00:15:00,50.8,44.8,29.81,West,270,0.0,0.0,80,0.00,,,0.00,WUHU216HW,2013-04-02 07:15:00,
2013-04-02 00:20:00,50.6,44.9,29.82,West,270,0.0,0.0,81,0.00,,,0.00,WUHU216HW,2013-04-02 07:20:00,
2013-04-02 00:25:00,50.2,44.6,29.82,West,270,0.0,0.0,81,0.00,,,0.00,WUHU216HW,2013-04-02 07:25:00,
2013-04-02 00:30:00,50.0,44.4,29.82,West,270,0.0,0.0,81,0.00,,,0.00,WUHU216HW,2013-04-02 07:30:00,
2013-04-02 00:35:00,50.0,44.4,29.82,West,270,0.0,0.0,81,0.00,,,0.00,WUHU216HW,2013-04-02 07:35:00,
2013-04-02 00:40:00,49.9,44.6,29.82,West,270,0.0,0.0,82,0.00,,,0.00,WUHU216HW,2013-04-02 07:40:00,
2013-04-02 00:45:00,49.9,44.6,29.82,West,270,0.0,0.0,82,0.00,,,0.00,WUHU216HW,2013-04-02 07:45:00,
2013-04-02 00:50:00,49.7,44.4,29.83,West,270,0.0,0.0,82,0.00,,,0.00,WUHU216HW,2013-04-02 07:50:00,
2013-04-02 00:55:00,49.5,44.2,29.82,West,270,0.0,0.0,82,0.00,,,0.00,WUHU216HW,2013-04-02 07:55:00,
2013-04-02 01:00:00,49.3,44.0,29.83,West,270,0.0,0.0,82,0.00,,,0.00,WUHU216HW,2013-04-02 08:00:00,
2013-04-02 01:05:00,49.1,43.8,29.83,West,270,0.0,0.0,82,0.00,,,0.00,WUHU216HW,2013-04-02 08:05:00,
2013-04-02 01:10:00,49.0,43.7,29.83,West,270,0.0,0.0,82,0.00,,,0.00,WUHU216HW,2013-04-02 08:10:00,
2013-04-02 01:15:00,49.0,44.0,29.83,West,270,0.0,0.0,83,0.00,,,0.00,WUHU216HW,2013-04-02 08:15:00,
2013-04-02 01:20:00,49.0,44.0,29.83,West,270,0.3,0.7,83,0.00,,,0.00,WUHU216HW,2013-04-02 08:20:00,
2013-04-02 01:25:00,48.8,43.8,29.83,West,270,0.0,0.7,83,0.00,,,0.00,WUHU216HW,2013-04-02 08:25:00,
2013-04-02 01:30:00,48.6,43.7,29.83,West,270,0.0,0.7,83,0.00,,,0.00,WUHU216HW,2013-04-02 08:30:00,
2013-04-02 01:35:00,48.6,43.9,29.83,West,270,0.0,0.7,84,0.00,,,0.00,WUHU216HW,2013-04-02 08:35:00,
2013-04-02 01:40:00,48.6,43.9,29.84,West,270,0.0,0.0,84,0.00,,,0.00,WUHU216HW,2013-04-02 08:40:00,
2013-04-02 01:45:00,48.6,43.7,29.84,West,270,0.0,0.0,83,0.00,,,0.00,WUHU216HW,2013-04-02 08:45:00,
2013-04-02 01:50:00,48.8,43.8,29.84,WSW,252,0.5,0.9,83,0.00,,,0.00,WUHU216HW,2013-04-02 08:50:00,
2013-04-02 01:55:00,49.0,44.3,29.84,WSW,248,0.0,0.9,84,0.00,,,0.00,WUHU216HW,2013-04-02 08:55:00,
2013-04-02 02:00:00,49.1,44.5,29.84,WSW,248,0.3,0.4,84,0.00,,,0.00,WUHU216HW,2013-04-02 09:00:00,
2013-04-02 02:05:00,49.3,44.7,29.84,WSW,248,0.0,0.4,84,0.00,,,0.00,WUHU216HW,2013-04-02 09:05:00,
2013-04-02 02:10:00,49.5,44.8,29.84,WSW,248,0.0,0.0,84,0.00,,,0.00,WUHU216HW,2013-04-02 09:10:00,
2013-04-02 02:15:00,49.7,45.3,29.84,WSW,248,0.0,0.0,85,0.00,,,0.00,WUHU216HW,2013-04-02 09:15:00,
2013-04-02 02:20:00,49.9,45.5,29.83,WSW,248,0.0,0.0,85,0.00,,,0.00,WUHU216HW,2013-04-02 09:20:00,
2013-04-02 02:25:00,50.0,45.6,29.84,NW,315,0.0,0.2,85,0.00,,,0.00,WUHU216HW,2013-04-02 09:25:00,
2013-04-02 02:30:00,50.0,45.6,29.84,WSW,248,0.4,0.4,85,0.00,,,0.00,WUHU216HW,2013-04-02 09:30:00,
2013-04-02 02:35:00,50.4,46.0,29.83,SW,236,1.6,2.9,85,0.00,,,0.00,WUHU216HW,2013-04-02 09:35:00,
2013-04-02 02:40:00,50.4,46.0,29.83,SSW,192,0.9,2.9,85,0.00,,,0.00,WUHU216HW,2013-04-02 09:40:00,
2013-04-02 02:45:00,50.6,46.4,29.83,SSW,203,0.2,1.3,86,0.00,,,0.00,WUHU216HW,2013-04-02 09:45:00,
2013-04-02 02:50:00,50.8,46.6,29.83,SW,225,1.1,1.1,86,0.00,,,0.00,WUHU216HW,2013-04-02 09:50:00,
2013-04-02 02:55:00,50.8,46.4,29.83,South,180,0.4,1.1,85,0.00,,,0.00,WUHU216HW,2013-04-02 09:55:00,
2013-04-02 03:00:00,50.8,46.6,29.83,SSW,203,0.4,0.7,86,0.00,,,0.00,WUHU216HW,2013-04-02 10:00:00,
2013-04-02 03:05:00,50.9,46.5,29.83,SW,225,1.1,1.1,85,0.00,,,0.00,WUHU216HW,2013-04-02 10:05:00,
2013-04-02 03:10:00,50.9,46.5,29.83,SSE,158,0.4,1.1,85,0.00,,,0.00,WUHU216HW,2013-04-02 10:10:00,
2013-04-02 03:15:00,50.9,46.8,29.83,SSW,198,0.6,1.1,86,0.00,,,0.00,WUHU216HW,2013-04-02 10:15:00,
2013-04-02 03:20:00,50.9,46.8,29.83,SE,135,0.3,1.1,86,0.00,,,0.00,WUHU216HW,2013-04-02 10:20:00,
2013-04-02 03:25:00,51.1,47.0,29.83,SSE,158,0.3,1.1,86,0.00,,,0.00,WUHU216HW,2013-04-02 10:25:00,
2013-04-02 03:30:00,51.1,47.0,29.83,SE,135,0.4,1.1,86,0.00,,,0.00,WUHU216HW,2013-04-02 10:30:00,
2013-04-02 03:35:00,51.1,47.0,29.83,WSW,255,0.2,0.7,86,0.00,,,0.00,WUHU216HW,2013-04-02 10:35:00,
2013-04-02 03:40:00,51.3,47.2,29.83,West,270,0.0,0.4,86,0.00,,,0.00,WUHU216HW,2013-04-02 10:40:00,
2013-04-02 03:45:00,51.3,46.9,29.83,SE,124,0.3,0.4,85,0.00,,,0.00,WUHU216HW,2013-04-02 10:45:00,
2013-04-02 03:50:00,51.5,47.1,29.83,South,180,0.2,0.9,85,0.00,,,0.00,WUHU216HW,2013-04-02 10:50:00,
2013-04-02 03:55:00,51.5,47.1,29.83,SSE,158,0.4,0.9,85,0.00,,,0.00,WUHU216HW,2013-04-02 10:55:00,
2013-04-02 04:00:00,51.5,47.1,29.83,SSE,153,0.3,1.3,85,0.00,,,0.00,WUHU216HW,2013-04-02 11:00:00,
2013-04-02 04:05:00,51.5,47.1,29.83,SSW,193,0.3,2.2,85,0.00,,,0.00,WUHU216HW,2013-04-02 11:05:00,
2013-04-02 04:10:00,51.5,47.1,29.83,SSE,158,1.1,2.2,85,0.00,,,0.00,WUHU216HW,2013-04-02 11:10:00,
2013-04-02 04:15:00,51.3,47.2,29.83,SW,224,2.2,4.0,86,0.00,,,0.00,WUHU216HW,2013-04-02 11:15:00,
2013-04-02 04:20:00,51.3,46.9,29.83,WSW,255,1.1,4.0,85,0.00,,,0.00,WUHU216HW,2013-04-02 11:20:00,
2013-04-02 04:25:00,51.3,46.9,29.84,SW,226,0.6,2.2,85,0.00,,,0.00,WUHU216HW,2013-04-02 11:25:00,
2013-04-02 04:30:00,51.3,46.9,29.84,SSE,158,1.3,1.8,85,0.00,,,0.00,WUHU216HW,2013-04-02 11:30:00,
2013-04-02 04:35:00,51.3,46.9,29.84,West,270,0.0,1.8,85,0.00,,,0.00,WUHU216HW,2013-04-02 11:35:00,
2013-04-02 04:40:00,51.3,46.9,29.84,SW,225,0.4,1.3,85,0.00,,,0.00,WUHU216HW,2013-04-02 11:40:00,
2013-04-02 04:45:00,51.3,46.9,29.84,WSW,248,2.0,2.0,85,0.00,,,0.00,WUHU216HW,2013-04-02 11:45:00,
2013-04-02 04:50:00,51.3,46.9,29.84,South,180,1.8,2.0,85,0.00,,,0.00,WUHU216HW,2013-04-02 11:50:00,
2013-04-02 04:55:00,51.3,46.6,29.84,South,174,0.5,2.0,84,0.00,,,0.00,WUHU216HW,2013-04-02 11:55:00,
2013-04-02 05:00:00,51.3,46.6,29.84,SW,233,1.0,1.8,84,0.00,,,0.00,WUHU216HW,2013-04-02 12:00:00,
2013-04-02 05:05:00,51.1,46.5,29.84,SSE,158,1.3,1.8,84,0.00,,,0.00,WUHU216HW,2013-04-02 12:05:00,
2013-04-02 05:10:00,51.1,46.5,29.84,WSW,246,1.3,2.7,84,0.00,,,0.00,WUHU216HW,2013-04-02 12:10:00,
2013-04-02 05:15:00,51.1,46.5,29.84,SW,225,2.7,2.7,84,0.00,,,0.00,WUHU216HW,2013-04-02 12:15:00,
2013-04-02 05:20:00,51.1,46.5,29.84,SSE,163,0.6,2.7,84,0.00,,,0.00,WUHU216HW,2013-04-02 12:20:00,
2013-04-02 05:25:00,51.1,46.5,29.84,South,189,0.7,2.5,84,0.00,,,0.00,WUHU216HW,2013-04-02 12:25:00,
2013-04-02 05:30:00,51.1,46.5,29.84,SW,225,0.2,1.6,84,0.00,,,0.00,WUHU216HW,2013-04-02 12:30:00,
2013-04-02 05:35:00,51.1,46.5,29.84,SE,135,0.7,2.5,84,0.00,,,0.00,WUHU216HW,2013-04-02 12:35:00,
2013-04-02 05:40:00,51.1,46.5,29.84,South,177,0.4,2.5,84,0.00,,,0.00,WUHU216HW,2013-04-02 12:40:00,
2013-04-02 05:45:00,51.1,46.5,29.85,WSW,248,0.7,1.1,84,0.00,,,0.00,WUHU216HW,2013-04-02 12:45:00,
2013-04-02 05:50:00,51.1,46.5,29.85,WSW,248,1.6,1.6,84,0.00,,,0.00,WUHU216HW,2013-04-02 12:50:00,
2013-04-02 05:55:00,51.3,46.6,29.85,WSW,248,0.2,1.8,84,0.00,,,0.00,WUHU216HW,2013-04-02 12:55:00,
2013-04-02 06:00:00,51.3,46.6,29.85,SW,225,1.6,1.8,84,0.00,,,0.00,WUHU216HW,2013-04-02 13:00:00,
2013-04-02 06:05:00,51.1,46.5,29.85,SSE,158,1.3,1.6,84,0.00,,,0.00,WUHU216HW,2013-04-02 13:05:00,
2013-04-02 06:10:00,51.1,46.5,29.85,SSW,205,0.8,1.6,84,0.00,,,0.00,WUHU216HW,2013-04-02 13:10:00,
2013-04-02 06:15:00,50.9,46.3,29.85,SSE,158,0.0,1.3,84,0.00,,,0.00,WUHU216HW,2013-04-02 13:15:00,
2013-04-02 06:20:00,50.9,46.3,29.85,SSE,158,0.4,1.1,84,0.00,,,0.00,WUHU216HW,2013-04-02 13:20:00,
2013-04-02 06:25:00,50.9,46.3,29.85,SSE,158,0.7,0.9,84,0.00,,,0.00,WUHU216HW,2013-04-02 13:25:00,
2013-04-02 06:30:00,50.9,46.5,29.85,SSE,158,0.3,0.9,85,0.00,,,0.00,WUHU216HW,2013-04-02 13:30:00,
2013-04-02 06:35:00,50.9,46.5,29.85,SSE,158,0.3,0.9,85,0.00,,,0.00,WUHU216HW,2013-04-02 13:35:00,
2013-04-02 06:40:00,50.9,46.5,29.85,SE,135,1.1,1.1,85,0.00,,,0.00,WUHU216HW,2013-04-02 13:40:00,
2013-04-02 06:45:00,50.8,46.1,29.85,SE,142,1.2,1.8,84,0.00,,,0.00,WUHU216HW,2013-04-02 13:45:00,
2013-04-02 06:50:00,50.6,45.9,29.85,SE,135,0.3,1.8,84,0.00,,,0.00,WUHU216HW,2013-04-02 13:50:00,
2013-04-02 06:55:00,50.4,45.7,29.84,East,90,0.3,1.1,84,0.00,,,0.00,WUHU216HW,2013-04-02 13:55:00,
2013-04-02 07:00:00,50.4,45.7,29.84,ENE,68,0.0,1.1,84,0.00,,,0.00,WUHU216HW,2013-04-02 14:00:00,
2013-04-02 07:05:00,50.4,45.7,29.84,SE,135,0.0,0.7,84,0.00,,,0.00,WUHU216HW,2013-04-02 14:05:00,
2013-04-02 07:10:00,50.2,45.6,29.84,ENE,68,0.4,0.7,84,0.00,,,0.00,WUHU216HW,2013-04-02 14:10:00,
2013-04-02 07:15:00,50.0,45.4,29.84,SE,135,0.0,0.4,84,0.00,,,0.00,WUHU216HW,2013-04-02 14:15:00,
2013-04-02 07:20:00,50.0,45.4,29.84,North,0,0.0,0.0,84,0.00,,,0.00,WUHU216HW,2013-04-02 14:20:00,
2013-04-02 07:25:00,50.0,45.6,29.85,ENE,68,0.0,0.0,85,0.00,,,0.00,WUHU216HW,2013-04-02 14:25:00,
2013-04-02 07:30:00,50.0,45.6,29.84,ENE,68,0.0,0.0,85,0.00,,,0.00,WUHU216HW,2013-04-02 14:30:00,
2013-04-02 07:35:00,50.0,45.6,29.84,ENE,68,0.0,0.0,85,0.00,,,0.00,WUHU216HW,2013-04-02 14:35:00,
2013-04-02 07:40:00,50.2,45.8,29.84,SSW,203,0.0,0.0,85,0.00,,,0.00,WUHU216HW,2013-04-02 14:40:00,
2013-04-02 07:45:00,50.4,46.0,29.85,SSE,158,0.4,0.9,85,0.00,,,0.00,WUHU216HW,2013-04-02 14:45:00,
2013-04-02 07:50:00,50.8,46.4,29.84,SSE,158,0.0,0.9,85,0.00,,,0.00,WUHU216HW,2013-04-02 14:50:00,
2013-04-02 07:55:00,51.1,46.7,29.84,SSE,153,0.9,1.6,85,0.00,,,0.00,WUHU216HW,2013-04-02 14:55:00,
2013-04-02 08:00:00,51.3,46.9,29.85,SE,135,1.1,2.5,85,0.00,,,0.00,WUHU216HW,2013-04-02 15:00:00,
2013-04-02 08:05:00,51.5,47.1,29.85,SE,135,1.6,2.5,85,0.00,,,0.00,WUHU216HW,2013-04-02 15:05:00,
2013-04-02 08:14:00,51.8,47.2,29.84,SSE,158,1.1,2.5,84,0.00,,,0.00,WUHU216HW,2013-04-02 15:14:00,
2013-04-02 08:19:00,54.7,50.0,29.84,South,180,1.1,1.8,84,0.00,,,0.00,WUHU216HW,2013-04-02 15:19:00,
2013-04-02 08:24:00,56.5,51.4,29.84,SE,135,1.4,2.0,83,0.00,,,0.00,WUHU216HW,2013-04-02 15:24:00,
2013-04-02 08:29:00,58.1,52.4,29.85,SE,125,1.0,2.5,81,0.00,,,0.00,WUHU216HW,2013-04-02 15:29:00,
2013-04-02 08:34:00,58.3,50.8,29.85,SSE,158,1.2,2.5,76,0.00,,,0.00,WUHU216HW,2013-04-02 15:34:00,
2013-04-02 08:39:00,57.8,50.6,29.85,SE,135,1.1,1.8,77,0.00,,,0.00,WUHU216HW,2013-04-02 15:39:00,
2013-04-02 08:44:00,58.3,50.8,29.84,SE,135,1.6,2.9,76,0.00,,,0.00,WUHU216HW,2013-04-02 15:44:00,
2013-04-02 08:49:00,58.1,50.2,29.85,South,180,2.9,3.8,75,0.00,,,0.00,WUHU216HW,2013-04-02 15:49:00,
2013-04-02 08:54:00,57.4,49.1,29.85,SSE,158,2.2,3.8,74,0.00,,,0.00,WUHU216HW,2013-04-02 15:54:00,
2013-04-02 08:59:00,56.0,48.2,29.85,SSE,153,1.8,3.8,75,0.00,,,0.00,WUHU216HW,2013-04-02 15:59:00,
2013-04-02 09:04:00,55.8,48.3,29.84,SE,135,4.0,4.0,76,0.00,,,0.00,WUHU216HW,2013-04-02 16:04:00,
2013-04-02 09:09:00,56.7,49.9,29.84,SSE,160,1.8,4.0,78,0.00,,,0.00,WUHU216HW,2013-04-02 16:09:00,
2013-04-02 09:14:00,58.1,50.9,29.84,WSW,254,1.9,4.0,77,0.00,,,0.00,WUHU216HW,2013-04-02 16:14:00,
2013-04-02 09:19:00,58.7,50.8,29.84,SSE,154,2.0,4.0,75,0.00,,,0.00,WUHU216HW,2013-04-02 16:19:00,
2013-04-02 09:24:00,58.1,49.9,29.84,SSE,164,2.1,3.4,74,0.00,,,0.00,WUHU216HW,2013-04-02 16:24:00,
2013-04-02 09:29:00,57.4,49.1,29.84,South,184,1.2,3.8,74,0.00,,,0.00,WUHU216HW,2013-04-02 16:29:00,
2013-04-02 09:34:00,57.1,49.1,29.84,SSE,161,2.1,4.0,75,0.00,,,0.00,WUHU216HW,2013-04-02 16:34:00,
2013-04-02 09:39:00,56.9,49.3,29.84,SSW,211,2.8,5.4,76,0.00,,,0.00,WUHU216HW,2013-04-02 16:39:00,
2013-04-02 09:44:00,57.4,49.9,29.84,SE,135,3.4,5.4,76,0.00,,,0.00,WUHU216HW,2013-04-02 16:44:00,
2013-04-02 09:49:00,58.7,50.8,29.84,SE,135,3.4,4.5,75,0.00,,,0.00,WUHU216HW,2013-04-02 16:49:00,
2013-04-02 09:54:00,59.0,50.8,29.84,SSE,157,2.2,4.3,74,0.00,,,0.00,WUHU216HW,2013-04-02 16:54:00,
2013-04-02 09:59:00,59.8,51.5,29.84,South,180,1.8,4.0,74,0.00,,,0.00,WUHU216HW,2013-04-02 16:59:00,
2013-04-02 10:04:00,59.9,50.9,29.84,SSW,203,2.2,3.6,72,0.00,,,0.00,WUHU216HW,2013-04-02 17:04:00,
2013-04-02 10:09:00,58.7,49.7,29.85,SSE,158,2.5,3.8,72,0.00,,,0.00,WUHU216HW,2013-04-02 17:09:00,
2013-04-02 10:15:00,57.6,49.0,29.85,SSE,158,2.0,4.0,73,0.00,,,0.00,WUHU216HW,2013-04-02 17:15:00,
2013-04-02 10:20:00,57.2,49.0,29.85,SSW,196,1.5,4.0,74,0.00,,,0.00,WUHU216HW,2013-04-02 17:20:00,
2013-04-02 10:25:00,56.9,48.6,29.85,WSW,248,4.5,4.5,74,0.00,,,0.00,WUHU216HW,2013-04-02 17:25:00,
2013-04-02 10:30:00,57.1,49.1,29.85,WSW,257,1.7,4.5,75,0.00,,,0.00,WUHU216HW,2013-04-02 17:30:00,
2013-04-02 10:35:00,57.2,49.3,29.85,WNW,286,1.2,3.4,75,0.00,,,0.00,WUHU216HW,2013-04-02 17:35:00,
2013-04-02 10:40:00,57.4,49.5,29.85,WSW,248,1.8,2.0,75,0.00,,,0.00,WUHU216HW,2013-04-02 17:40:00,
2013-04-02 10:45:00,58.0,50.4,29.85,WSW,257,2.1,3.4,76,0.00,,,0.00,WUHU216HW,2013-04-02 17:45:00,
2013-04-02 10:50:00,58.7,50.4,29.85,SE,135,0.7,3.4,74,0.00,,,0.00,WUHU216HW,2013-04-02 17:50:00,
2013-04-02 10:55:00,58.7,50.0,29.85,West,270,1.6,4.0,73,0.00,,,0.00,WUHU216HW,2013-04-02 17:55:00,
2013-04-02 11:00:00,58.9,50.2,29.85,WSW,248,3.4,4.0,73,0.00,,,0.00,WUHU216HW,2013-04-02 18:00:00,
2013-04-02 11:05:00,59.4,50.8,29.85,NW,308,1.5,4.9,73,0.00,,,0.00,WUHU216HW,2013-04-02 18:05:00,
2013-04-02 11:10:00,59.6,50.9,29.85,SSE,160,1.2,4.9,73,0.00,,,0.00,WUHU216HW,2013-04-02 18:10:00,
2013-04-02 11:15:00,59.8,51.1,29.85,West,270,1.3,2.9,73,0.00,,,0.00,WUHU216HW,2013-04-02 18:15:00,
2013-04-02 11:20:00,60.5,51.5,29.85,South,180,4.0,4.0,72,0.00,,,0.00,WUHU216HW,2013-04-02 18:20:00,
2013-04-02 11:25:00,61.0,51.3,29.85,SE,143,2.5,4.0,70,0.00,,,0.00,WUHU216HW,2013-04-02 18:25:00,
2013-04-02 11:30:00,60.8,51.1,29.85,SW,225,4.0,6.0,70,0.00,,,0.00,WUHU216HW,2013-04-02 18:30:00,
2013-04-02 11:35:00,61.2,51.9,29.85,SSW,197,2.9,6.0,71,0.00,,,0.00,WUHU216HW,2013-04-02 18:35:00,
2013-04-02 11:40:00,61.2,51.5,29.85,SW,225,2.2,4.0,70,0.00,,,0.00,WUHU216HW,2013-04-02 18:40:00,
2013-04-02 11:45:00,61.4,51.6,29.85,South,180,0.9,4.3,70,0.00,,,0.00,WUHU216HW,2013-04-02 18:45:00,
2013-04-02 11:50:00,61.9,52.1,29.85,SW,225,3.8,4.7,70,0.00,,,0.00,WUHU216HW,2013-04-02 18:50:00,
2013-04-02 11:56:00,61.6,51.4,29.85,SW,225,3.8,4.7,69,0.00,,,0.00,WUHU216HW,2013-04-02 18:56:00,
2013-04-02 12:01:00,61.6,51.4,29.84,WSW,248,4.0,4.7,69,0.00,,,0.00,WUHU216HW,2013-04-02 19:01:00,
2013-04-02 12:06:00,61.7,51.5,29.84,WNW,293,3.1,4.7,69,0.00,,,0.00,WUHU216HW,2013-04-02 19:06:00,
2013-04-02 12:11:00,61.7,51.5,29.84,SSE,158,4.7,4.7,69,0.00,,,0.00,WUHU216HW,2013-04-02 19:11:00,
2013-04-02 12:17:00,61.7,51.9,29.84,WSW,248,2.9,4.7,70,0.00,,,0.00,WUHU216HW,2013-04-02 19:17:00,
2013-04-02 12:22:00,62.1,52.3,29.84,SE,135,4.0,4.3,70,0.00,,,0.00,WUHU216HW,2013-04-02 19:22:00,
2013-04-02 12:27:00,62.1,52.3,29.84,SE,135,3.4,4.9,70,0.00,,,0.00,WUHU216HW,2013-04-02 19:27:00,
2013-04-02 12:32:00,61.9,52.1,29.84,SSE,159,1.9,4.9,70,0.00,,,0.00,WUHU216HW,2013-04-02 19:32:00,
2013-04-02 12:37:00,62.1,52.3,29.84,SW,225,3.4,4.5,70,0.00,,,0.00,WUHU216HW,2013-04-02 19:37:00,
2013-04-02 12:42:00,62.5,52.6,29.84,SW,225,2.2,4.5,70,0.00,,,0.00,WUHU216HW,2013-04-02 19:42:00,
2013-04-02 12:48:00,62.8,52.9,29.84,WSW,248,3.4,4.3,70,0.00,,,0.00,WUHU216HW,2013-04-02 19:48:00,
2013-04-02 12:53:00,63.4,53.5,29.84,WSW,248,4.0,6.3,70,0.00,,,0.00,WUHU216HW,2013-04-02 19:53:00,
2013-04-02 12:58:00,63.9,53.6,29.84,SW,231,2.8,6.3,69,0.00,,,0.00,WUHU216HW,2013-04-02 19:58:00,
2013-04-02 13:03:00,63.7,53.0,29.83,SSE,158,4.7,6.3,68,0.00,,,0.00,WUHU216HW,2013-04-02 20:03:00,
2013-04-02 13:08:00,63.0,52.7,29.83,SE,144,2.4,6.3,69,0.00,,,0.00,WUHU216HW,2013-04-02 20:08:00,
2013-04-02 13:13:00,63.2,52.8,29.84,SE,144,2.8,5.6,69,0.00,,,0.00,WUHU216HW,2013-04-02 20:13:00,
2013-04-02 13:18:00,63.2,52.8,29.83,SSE,158,3.6,4.7,69,0.00,,,0.00,WUHU216HW,2013-04-02 20:18:00,
2013-04-02 13:23:00,63.4,53.0,29.83,ESE,113,5.1,5.1,69,0.00,,,0.00,WUHU216HW,2013-04-02 20:23:00,
2013-04-02 13:28:00,63.5,53.2,29.83,SE,135,1.6,5.1,69,0.00,,,0.00,WUHU216HW,2013-04-02 20:28:00,
2013-04-02 13:33:00,63.7,53.4,29.83,South,180,4.9,5.1,69,0.00,,,0.00,WUHU216HW,2013-04-02 20:33:00,
2013-04-02 13:38:00,63.9,53.2,29.83,WSW,238,1.3,4.9,68,0.00,,,0.00,WUHU216HW,2013-04-02 20:38:00,
2013-04-02 13:44:00,64.1,52.9,29.83,WNW,301,1.8,3.4,67,0.00,,,0.00,WUHU216HW,2013-04-02 20:44:00,
2013-04-02 13:49:00,64.3,53.1,29.83,SE,143,2.0,2.7,67,0.00,,,0.00,WUHU216HW,2013-04-02 20:49:00,
2013-04-02 13:54:00,64.3,53.1,29.83,WSW,248,3.1,3.8,67,0.00,,,0.00,WUHU216HW,2013-04-02 20:54:00,
2013-04-02 13:59:00,64.6,53.4,29.82,SE,139,1.6,3.8,67,0.00,,,0.00,WUHU216HW,2013-04-02 20:59:00,
2013-04-02 14:04:00,65.0,53.7,29.82,South,180,2.2,3.4,67,0.00,,,0.00,WUHU216HW,2013-04-02 21:04:00,
2013-04-02 14:09:00,65.5,54.3,29.82,SSW,211,3.9,6.0,67,0.00,,,0.00,WUHU216HW,2013-04-02 21:09:00,
2013-04-02 14:14:00,65.5,53.0,29.82,NNE,23,2.0,6.0,64,0.00,,,0.00,WUHU216HW,2013-04-02 21:14:00,
2013-04-02 14:19:00,65.3,52.8,29.82,North,0,2.5,4.7,64,0.00,,,0.00,WUHU216HW,2013-04-02 21:19:00,
2013-04-02 14:24:00,65.2,52.7,29.81,East,87,3.0,3.8,64,0.00,,,0.00,WUHU216HW,2013-04-02 21:24:00,
2013-04-02 14:29:00,65.5,53.4,29.81,SW,225,2.5,3.8,65,0.00,,,0.00,WUHU216HW,2013-04-02 21:29:00,
2013-04-02 14:34:00,66.1,53.9,29.81,WSW,248,3.4,3.6,65,0.00,,,0.00,WUHU216HW,2013-04-02 21:34:00,
2013-04-02 14:39:00,66.8,54.6,29.81,West,275,3.2,3.6,65,0.00,,,0.00,WUHU216HW,2013-04-02 21:39:00,
2013-04-02 14:44:00,67.1,54.1,29.81,West,266,1.9,4.0,63,0.00,,,0.00,WUHU216HW,2013-04-02 21:44:00,
2013-04-02 14:49:00,66.6,53.2,29.81,NNW,336,1.1,4.0,62,0.00,,,0.00,WUHU216HW,2013-04-02 21:49:00,
2013-04-02 14:54:00,66.2,52.8,29.81,North,0,1.8,4.0,62,0.00,,,0.00,WUHU216HW,2013-04-02 21:54:00,
2013-04-02 14:59:00,65.7,52.8,29.81,NNW,338,2.0,4.0,63,0.00,,,0.00,WUHU216HW,2013-04-02 21:59:00,
2013-04-02 15:04:00,65.3,52.4,29.81,NNW,338,2.9,4.0,63,0.00,,,0.00,WUHU216HW,2013-04-02 22:04:00,
2013-04-02 15:09:00,65.2,52.2,29.81,NNE,21,1.5,3.4,63,0.00,,,0.00,WUHU216HW,2013-04-02 22:09:00,
2013-04-02 15:14:00,65.2,52.2,29.80,ESE,113,2.7,4.0,63,0.00,,,0.00,WUHU216HW,2013-04-02 22:14:00,
2013-04-02 15:19:00,65.0,52.0,29.80,East,87,1.3,4.0,63,0.00,,,0.00,WUHU216HW,2013-04-02 22:19:00,
2013-04-02 15:24:00,65.0,52.5,29.80,SE,130,0.9,2.5,64,0.00,,,0.00,WUHU216HW,2013-04-02 22:24:00,
2013-04-02 15:29:00,64.8,52.3,29.80,NNE,17,0.6,1.8,64,0.00,,,0.00,WUHU216HW,2013-04-02 22:29:00,
2013-04-02 15:34:00,64.8,52.3,29.80,North,0,0.7,1.6,64,0.00,,,0.00,WUHU216HW,2013-04-02 22:34:00,
2013-04-02 15:39:00,64.8,52.3,29.79,North,358,1.6,2.5,64,0.00,,,0.00,WUHU216HW,2013-04-02 22:39:00,
2013-04-02 15:44:00,64.4,51.9,29.79,East,90,0.7,2.5,64,0.00,,,0.00,WUHU216HW,2013-04-02 22:44:00,
2013-04-02 15:49:00,64.4,51.9,29.79,East,90,1.3,2.0,64,0.00,,,0.00,WUHU216HW,2013-04-02 22:49:00,
2013-04-02 15:54:00,64.4,51.9,29.79,SE,135,1.8,2.0,64,0.00,,,0.00,WUHU216HW,2013-04-02 22:54:00,
2013-04-02 15:59:00,64.6,52.1,29.79,ENE,59,0.3,1.8,64,0.00,,,0.00,WUHU216HW,2013-04-02 22:59:00,
2013-04-02 16:04:00,64.6,52.1,29.78,SE,135,1.1,1.8,64,0.00,,,0.00,WUHU216HW,2013-04-02 23:04:00,
2013-04-02 16:09:00,64.6,52.1,29.78,ENE,68,0.9,1.3,64,0.00,,,0.00,WUHU216HW,2013-04-02 23:09:00,
2013-04-02 16:14:00,64.8,52.3,29.78,ESE,113,1.1,1.8,64,0.00,,,0.00,WUHU216HW,2013-04-02 23:14:00,
2013-04-02 16:19:00,65.2,52.7,29.78,East,84,1.7,2.5,64,0.00,,,0.00,WUHU216HW,2013-04-02 23:19:00,
2013-04-02 16:24:00,65.5,52.6,29.78,ESE,107,1.1,2.5,63,0.00,,,0.00,WUHU216HW,2013-04-02 23:24:00,
2013-04-02 16:29:00,66.1,52.7,29.78,East,83,1.7,2.7,62,0.00,,,0.00,WUHU216HW,2013-04-02 23:29:00,
2013-04-02 16:35:00,66.1,52.3,29.78,ENE,68,2.5,4.0,61,0.00,,,0.00,WUHU216HW,2013-04-02 23:35:00,
2013-04-02 16:40:00,66.4,52.6,29.77,SSE,149,2.3,4.0,61,0.00,,,0.00,WUHU216HW,2013-04-02 23:40:00,
2013-04-02 16:45:00,66.8,52.9,29.77,SSE,158,1.8,3.4,61,0.00,,,0.00,WUHU216HW,2013-04-02 23:45:00,
2013-04-02 16:50:00,67.0,52.7,29.77,SW,225,3.8,3.8,60,0.00,,,0.00,WUHU216HW,2013-04-02 23:50:00,
2013-04-02 16:55:00,67.1,52.8,29.77,NNE,18,0.4,3.8,60,0.00,,,0.00,WUHU216HW,2013-04-02 23:55:00,
2013-04-02 17:00:00,67.1,52.8,29.77,SSE,151,3.5,5.4,60,0.00,,,0.00,WUHU216HW,2013-04-03 00:00:00,
2013-04-02 17:05:00,67.1,52.8,29.77,SE,146,1.8,5.4,60,0.00,,,0.00,WUHU216HW,2013-04-03 00:05:00,
2013-04-02 17:10:00,67.0,52.7,29.77,SSE,158,1.8,4.0,60,0.00,,,0.00,WUHU216HW,2013-04-03 00:10:00,
2013-04-02 17:15:00,66.8,52.5,29.77,NE,45,1.3,2.7,60,0.00,,,0.00,WUHU216HW,2013-04-03 00:15:00,
2013-04-02 17:20:00,66.6,52.4,29.77,SE,135,0.0,2.7,60,0.00,,,0.00,WUHU216HW,2013-04-03 00:20:00,
2013-04-02 17:25:00,66.4,52.2,29.76,ENE,68,1.1,1.6,60,0.00,,,0.00,WUHU216HW,2013-04-03 00:25:00,
2013-04-02 17:30:00,66.2,52.0,29.76,East,85,1.5,1.8,60,0.00,,,0.00,WUHU216HW,2013-04-03 00:30:00,
2013-04-02 17:35:00,66.2,52.0,29.76,East,90,2.5,3.1,60,0.00,,,0.00,WUHU216HW,2013-04-03 00:35:00,
2013-04-02 17:40:00,66.2,52.0,29.76,NNE,15,1.2,3.1,60,0.00,,,0.00,WUHU216HW,2013-04-03 00:40:00,
2013-04-02 17:46:00,66.4,52.2,29.76,NNW,331,0.5,3.1,60,0.00,,,0.00,WUHU216HW,2013-04-03 00:46:00,
2013-04-02 17:51:00,66.8,52.0,29.76,ENE,65,1.5,2.5,59,0.00,,,0.00,WUHU216HW,2013-04-03 00:51:00,
2013-04-02 17:56:00,67.0,52.2,29.76,ESE,113,3.4,3.4,59,0.00,,,0.00,WUHU216HW,2013-04-03 00:56:00,
2013-04-02 18:01:00,66.8,52.0,29.76,East,79,0.4,3.4,59,0.00,,,0.00,WUHU216HW,2013-04-03 01:01:00,
2013-04-02 18:07:00,66.6,51.8,29.75,ENE,78,0.8,2.7,59,0.00,,,0.00,WUHU216HW,2013-04-03 01:07:00,
2013-04-02 18:12:00,66.4,51.7,29.75,ENE,68,1.8,2.0,59,0.00,,,0.00,WUHU216HW,2013-04-03 01:12:00,
2013-04-02 18:17:00,66.4,51.7,29.75,ENE,68,1.1,2.2,59,0.00,,,0.00,WUHU216HW,2013-04-03 01:17:00,
2013-04-02 18:22:00,66.2,52.0,29.75,SE,135,1.3,2.2,60,0.00,,,0.00,WUHU216HW,2013-04-03 01:22:00,
2013-04-02 18:27:00,65.9,51.2,29.75,South,180,0.5,1.8,59,0.00,,,0.00,WUHU216HW,2013-04-03 01:27:00,
2013-04-02 18:32:00,65.5,51.3,29.76,WNW,293,1.3,1.3,60,0.00,,,0.00,WUHU216HW,2013-04-03 01:32:00,
2013-04-02 18:37:00,65.0,51.2,29.76,NW,315,0.9,1.6,61,0.00,,,0.00,WUHU216HW,2013-04-03 01:37:00,
2013-04-02 18:42:00,64.4,51.1,29.76,NW,315,0.9,1.6,62,0.00,,,0.00,WUHU216HW,2013-04-03 01:42:00,
2013-04-02 18:47:00,64.1,51.2,29.76,NW,313,1.2,1.3,63,0.00,,,0.00,WUHU216HW,2013-04-03 01:47:00,
2013-04-02 18:52:00,63.9,51.0,29.76,NW,312,0.8,1.3,63,0.00,,,0.00,WUHU216HW,2013-04-03 01:52:00,
2013-04-02 18:57:00,63.5,51.1,29.75,NW,313,0.4,1.1,64,0.00,,,0.00,WUHU216HW,2013-04-03 01:57:00,
2013-04-02 19:02:00,63.2,50.8,29.75,WNW,301,0.8,1.3,64,0.00,,,0.00,WUHU216HW,2013-04-03 02:02:00,
2013-04-02 19:07:00,62.8,50.9,29.75,NW,315,1.8,1.8,65,0.00,,,0.00,WUHU216HW,2013-04-03 02:07:00,
2013-04-02 19:12:00,62.5,50.5,29.76,NW,315,1.5,1.8,65,0.00,,,0.00,WUHU216HW,2013-04-03 02:12:00,
2013-04-02 19:17:00,62.1,50.6,29.75,NW,317,1.2,1.8,66,0.00,,,0.00,WUHU216HW,2013-04-03 02:17:00,
2013-04-02 19:23:00,61.6,50.5,29.76,NW,315,1.5,1.8,67,0.00,,,0.00,WUHU216HW,2013-04-03 02:23:00,
2013-04-02 19:28:00,61.2,50.2,29.75,NW,315,1.3,1.8,67,0.00,,,0.00,WUHU216HW,2013-04-03 02:28:00,
2013-04-02 19:33:00,60.8,50.3,29.76,NNW,338,1.6,1.8,68,0.00,,,0.00,WUHU216HW,2013-04-03 02:33:00,
2013-04-02 19:38:00,60.1,50.0,29.75,NW,312,2.4,2.5,69,0.00,,,0.00,WUHU216HW,2013-04-03 02:38:00,
2013-04-02 19:43:00,59.9,49.8,29.76,NW,315,2.0,2.5,69,0.00,,,0.00,WUHU216HW,2013-04-03 02:43:00,
2013-04-02 19:48:00,59.6,49.4,29.76,NW,315,2.0,2.5,69,0.00,,,0.00,WUHU216HW,2013-04-03 02:48:00,
2013-04-02 19:53:00,59.4,49.2,29.76,NW,315,2.2,2.5,69,0.00,,,0.00,WUHU216HW,2013-04-03 02:53:00,
2013-04-02 19:58:00,59.2,49.5,29.76,NW,315,1.8,2.5,70,0.00,,,0.00,WUHU216HW,2013-04-03 02:58:00,
2013-04-02 20:03:00,59.0,49.7,29.76,NW,304,0.3,2.5,71,0.00,,,0.00,WUHU216HW,2013-04-03 03:03:00,
2013-04-02 20:08:00,58.9,49.1,29.76,NNW,332,0.3,2.0,70,0.00,,,0.00,WUHU216HW,2013-04-03 03:08:00,
2013-04-02 20:13:00,58.7,49.3,29.76,NW,320,0.5,1.1,71,0.00,,,0.00,WUHU216HW,2013-04-03 03:13:00,
2013-04-02 20:18:00,58.3,49.0,29.76,NNW,338,0.0,0.7,71,0.00,,,0.00,WUHU216HW,2013-04-03 03:18:00,
2013-04-02 20:23:00,58.0,48.6,29.76,NNW,338,0.0,0.4,71,0.00,,,0.00,WUHU216HW,2013-04-03 03:23:00,
2013-04-02 20:28:00,57.8,48.8,29.76,NNW,338,0.0,0.0,72,0.00,,,0.00,WUHU216HW,2013-04-03 03:28:00,
2013-04-02 20:33:00,57.6,48.6,29.76,NNW,338,0.3,0.4,72,0.00,,,0.00,WUHU216HW,2013-04-03 03:33:00,
2013-04-02 20:38:00,57.4,48.8,29.77,NNW,338,0.0,0.4,73,0.00,,,0.00,WUHU216HW,2013-04-03 03:38:00,
2013-04-02 20:43:00,57.2,48.6,29.77,ENE,66,1.1,1.8,73,0.00,,,0.00,WUHU216HW,2013-04-03 03:43:00,
2013-04-02 20:49:00,56.9,48.2,29.77,SSE,158,0.2,1.8,73,0.00,,,0.00,WUHU216HW,2013-04-03 03:49:00,
2013-04-02 20:54:00,56.7,48.1,29.77,SW,225,0.2,1.8,73,0.00,,,0.00,WUHU216HW,2013-04-03 03:54:00,
2013-04-02 20:59:00,56.5,48.0,29.78,WSW,248,0.0,1.8,73,0.00,,,0.00,WUHU216HW,2013-04-03 03:59:00,
2013-04-02 21:00:00,56.5,48.0,29.78,WSW,248,0.0,1.8,73,0.00,,,0.00,WUHU216HW,2013-04-03 04:00:00,
2013-04-02 21:05:00,56.3,47.8,29.78,NNW,338,0.5,0.7,73,0.00,,,0.00,WUHU216HW,2013-04-03 04:05:00,
2013-04-02 21:10:00,56.2,48.0,29.78,NNW,338,0.5,0.7,74,0.00,,,0.00,WUHU216HW,2013-04-03 04:10:00,
2013-04-02 21:15:00,56.0,47.8,29.78,NW,315,1.6,1.6,74,0.00,,,0.00,WUHU216HW,2013-04-03 04:15:00,
2013-04-02 21:20:00,55.8,47.6,29.78,NW,315,1.0,1.6,74,0.00,,,0.00,WUHU216HW,2013-04-03 04:20:00,
2013-04-02 21:25:00,55.4,47.3,29.78,NW,315,0.0,1.3,74,0.00,,,0.00,WUHU216HW,2013-04-03 04:25:00,
2013-04-02 21:30:00,55.1,47.3,29.78,NW,315,1.1,1.1,75,0.00,,,0.00,WUHU216HW,2013-04-03 04:30:00,
2013-04-02 21:35:00,55.1,47.3,29.78,NW,315,0.8,1.6,75,0.00,,,0.00,WUHU216HW,2013-04-03 04:35:00,
2013-04-02 21:40:00,54.7,46.9,29.78,NW,315,0.0,1.6,75,0.00,,,0.00,WUHU216HW,2013-04-03 04:40:00,
2013-04-02 21:45:00,54.5,47.1,29.78,NW,315,0.0,0.2,76,0.00,,,0.00,WUHU216HW,2013-04-03 04:45:00,
2013-04-02 21:50:00,54.4,46.6,29.78,NW,315,0.0,0.0,75,0.00,,,0.00,WUHU216HW,2013-04-03 04:50:00,
2013-04-02 21:55:00,54.2,46.5,29.78,NW,315,0.0,0.0,75,0.00,,,0.00,WUHU216HW,2013-04-03 04:55:00,
2013-04-02 22:00:00,54.0,46.3,29.78,NW,315,0.0,0.0,75,0.00,,,0.00,WUHU216HW,2013-04-03 05:00:00,
2013-04-02 22:05:00,53.8,46.1,29.78,NW,315,0.0,0.0,75,0.00,,,0.00,WUHU216HW,2013-04-03 05:05:00,
2013-04-02 22:10:00,53.6,46.3,29.78,NW,315,0.0,0.0,76,0.00,,,0.00,WUHU216HW,2013-04-03 05:10:00,
2013-04-02 22:15:00,53.5,46.1,29.78,NNE,23,0.4,0.4,76,0.00,,,0.00,WUHU216HW,2013-04-03 05:15:00,
2013-04-02 22:20:00,53.3,46.3,29.78,NNW,338,0.2,0.4,77,0.00,,,0.00,WUHU216HW,2013-04-03 05:20:00,
2013-04-02 22:25:00,53.1,46.1,29.78,NNW,338,0.0,0.4,77,0.00,,,0.00,WUHU216HW,2013-04-03 05:25:00,
2013-04-02 22:30:00,52.9,45.9,29.78,NNW,338,0.0,0.0,77,0.00,,,0.00,WUHU216HW,2013-04-03 05:30:00,
2013-04-02 22:35:00,52.9,46.3,29.78,NNW,338,0.0,0.0,78,0.00,,,0.00,WUHU216HW,2013-04-03 05:35:00,
2013-04-02 22:40:00,52.6,45.9,29.78,ENE,68,0.4,0.4,78,0.00,,,0.00,WUHU216HW,2013-04-03 05:40:00,
2013-04-02 22:45:00,52.4,45.7,29.78,NE,45,0.0,0.4,78,0.00,,,0.00,WUHU216HW,2013-04-03 05:45:00,
2013-04-02 22:50:00,52.4,45.7,29.78,NE,45,0.0,0.4,78,0.00,,,0.00,WUHU216HW,2013-04-03 05:50:00,
2013-04-02 22:55:00,52.2,45.5,29.78,ENE,68,0.2,0.7,78,0.00,,,0.00,WUHU216HW,2013-04-03 05:55:00,
2013-04-02 23:00:00,52.0,45.4,29.78,ENE,68,0.0,0.7,78,0.00,,,0.00,WUHU216HW,2013-04-03 06:00:00,
2013-04-02 23:05:00,51.8,45.5,29.79,East,90,0.0,0.0,79,0.00,,,0.00,WUHU216HW,2013-04-03 06:05:00,
2013-04-02 23:10:00,51.8,45.5,29.79,NNW,338,0.2,0.2,79,0.00,,,0.00,WUHU216HW,2013-04-03 06:10:00,
2013-04-02 23:15:00,51.7,45.4,29.79,NNW,338,0.0,0.2,79,0.00,,,0.00,WUHU216HW,2013-04-03 06:15:00,
2013-04-02 23:20:00,51.5,45.2,29.79,NNW,338,0.0,0.0,79,0.00,,,0.00,WUHU216HW,2013-04-03 06:20:00,
2013-04-02 23:25:00,51.3,45.0,29.79,North,0,0.0,0.0,79,0.00,,,0.00,WUHU216HW,2013-04-03 06:25:00,
2013-04-02 23:30:00,51.1,45.2,29.79,NW,315,0.2,0.2,80,0.00,,,0.00,WUHU216HW,2013-04-03 06:30:00,
2013-04-02 23:35:00,50.9,45.0,29.79,NE,45,0.0,0.2,80,0.00,,,0.00,WUHU216HW,2013-04-03 06:35:00,
2013-04-02 23:40:00,50.8,44.8,29.79,NE,45,0.0,0.0,80,0.00,,,0.00,WUHU216HW,2013-04-03 06:40:00,
2013-04-02 23:45:00,50.6,44.6,29.79,NE,45,0.0,0.0,80,0.00,,,0.00,WUHU216HW,2013-04-03 06:45:00,
2013-04-02 23:50:00,50.4,44.5,29.79,NE,45,0.0,0.0,80,0.00,,,0.00,WUHU216HW,2013-04-03 06:50:00,
2013-04-02 23:55:00,50.2,44.3,29.79,NE,45,0.0,0.0,80,0.00,,,0.00,WUHU216HW,2013-04-03 06:55:00,